Weather reports worldwide

Advertisment
Page/Page A., United States of America (72371): temperature & dewpoint: 13.09.2019 10:00:00 - 19.09.2019 10:00:00 (MST)Page/Page A., United States of America (72371): wind speed: 13.09.2019 10:00:00 - 19.09.2019 10:00:00 (MST)Page/Page A., United States of America (72371): wind direction: 13.09.2019 10:00:00 - 19.09.2019 10:00:00 (MST)Page/Page A., United States of America (72371): reduced air pressure: 13.09.2019 10:00:00 - 19.09.2019 10:00:00 (MST)Page/Page A., United States of America (72371): visibility: 13.09.2019 10:00:00 - 19.09.2019 10:00:00 (MST)Page/Page A., United States of America (72371): precipitation: 13.09.2019 10:00:00 - 19.09.2019 10:00:00 (MST)
Date & Time tt [°C] td [°C] ff [km/h] ff [kn] dd ppp [hPa] vv [km] rr [mm]
19.09.2019 10:00:00 27,2 4,4 26 14 S 1006,1 16 -
19.09.2019 09:00:00 25,0 3,9 29 16 S 1006,9 16 -
19.09.2019 08:00:00 23,3 4,4 22 12 S 1007,1 16 -
19.09.2019 07:00:00 21,7 3,9 22 12 S 1007,0 16 -
19.09.2019 06:00:00 21,7 3,9 13 7 S 1006,4 16 -
19.09.2019 05:00:00 21,7 3,3 24 13 S 1005,9 16 0,0
19.09.2019 04:00:00 22,2 3,3 18 10 S 1005,9 16 -
19.09.2019 03:00:00 22,2 2,8 15 8 S 1006,3 16 -
19.09.2019 02:00:00 22,8 2,2 18 10 S 1006,5 16 -
19.09.2019 01:00:00 23,3 2,2 11 6 S 1006,4 16 -
19.09.2019 00:00:00 23,9 2,2 18 10 S 1006,3 16 -
18.09.2019 23:00:00 25,0 1,1 15 8 SSW 1006,4 16 0,0
18.09.2019 22:00:00 25,0 0,0 11 6 SSW 1006,8 16 -
18.09.2019 21:00:00 25,6 0,6 13 7 S 1006,8 16 -
18.09.2019 20:00:00 26,7 -1,1 9 5 S 1006,4 16 -
18.09.2019 19:00:00 28,3 -1,1 9 5 SSW 1006,0 16 -
18.09.2019 18:00:00 30,6 -1,1 9 5 SW 1005,6 16 -
18.09.2019 17:00:00 31,7 0,6 16 9 S 1005,8 16 0,0
18.09.2019 16:00:00 31,7 1,7 22 12 SSW 1006,2 16 -
18.09.2019 15:00:00 31,1 2,2 18 10 SW 1006,8 16 -
18.09.2019 14:00:00 30,6 1,7 18 10 SSW 1007,8 16 -
18.09.2019 13:00:00 30,0 2,2 24 13 SSW 1008,7 16 -
18.09.2019 12:00:00 28,9 3,9 18 10 S 1009,7 16 -
18.09.2019 11:00:00 26,7 1,7 11 6 NE 1010,9 16 0,0
18.09.2019 10:00:00 23,3 -0,6 8 4 N 1011,9 16 -
18.09.2019 09:00:00 21,1 -2,2 8 4 N 1012,1 16 -
18.09.2019 08:00:00 20,0 -1,7 0 0 N 1012,1 16 -
18.09.2019 07:00:00 17,8 -1,1 0 0 N 1011,8 16 -
18.09.2019 06:00:00 17,8 -1,1 0 0 N 1010,9 16 -
18.09.2019 05:00:00 16,1 -2,2 9 5 WSW 1010,2 16 0,0
18.09.2019 04:00:00 16,7 -3,9 0 0 N 1010,3 16 -
18.09.2019 03:00:00 17,2 -3,9 0 0 N 1010,2 16 -
18.09.2019 02:00:00 18,3 -3,3 0 0 N 1010,0 16 -
18.09.2019 01:00:00 18,3 -2,2 5 3 SW 1010,0 16 -
18.09.2019 00:00:00 21,1 -2,8 5 3 WSW 1009,5 16 -
17.09.2019 23:00:00 21,7 -3,3 8 4 SW 1009,3 16 0,0
17.09.2019 22:00:00 23,3 -3,9 8 4 WSW 1009,0 16 -
17.09.2019 21:00:00 24,4 -3,3 5 3 WSW 1008,9 16 -
17.09.2019 20:00:00 25,6 -2,8 8 4 WNW 1008,3 16 -
17.09.2019 19:00:00 26,7 -2,8 13 7 NW 1007,7 16 -
17.09.2019 18:00:00 28,9 -1,7 16 9 WNW 1007,0 16 -
17.09.2019 17:00:00 30,0 1,1 5 3 N 1006,7 16 0,0
17.09.2019 16:00:00 30,0 2,2 16 9 SW 1006,5 16 -
17.09.2019 15:00:00 30,0 2,8 9 5 - 1006,8 16 -
17.09.2019 14:00:00 29,4 3,3 13 7 SW 1007,8 16 -
17.09.2019 13:00:00 28,9 4,4 9 5 - 1008,4 16 -
17.09.2019 12:00:00 28,3 5,6 22 12 WSW 1009,0 16 -
17.09.2019 11:00:00 27,8 5,6 21 11 WSW 1009,5 16 0,0
17.09.2019 10:00:00 26,7 6,7 11 6 WSW 1009,8 16 -
17.09.2019 09:00:00 25,6 9,4 8 4 - 1009,7 16 -
17.09.2019 08:00:00 23,9 10,0 9 5 SSW 1009,4 16 -
17.09.2019 07:00:00 22,8 9,4 21 11 S 1008,7 16 -
17.09.2019 06:00:00 22,2 9,4 21 11 S 1007,7 16 -
17.09.2019 05:00:00 22,8 8,9 21 11 S 1007,6 16 0,0
17.09.2019 04:00:00 23,9 8,3 18 10 S 1007,1 16 -
17.09.2019 03:00:00 23,9 7,8 15 8 S 1006,9 16 -
17.09.2019 02:00:00 23,9 9,4 13 7 S 1006,7 16 -
17.09.2019 01:00:00 24,4 7,8 15 8 S 1006,8 16 -
17.09.2019 00:00:00 25,6 6,7 16 9 S 1006,6 16 -
16.09.2019 23:00:00 25,6 1,7 16 9 S 1006,9 16 0,0
16.09.2019 22:00:00 25,6 0,0 11 6 - 1006,8 16 -
16.09.2019 21:00:00 26,7 0,0 5 3 SW 1006,6 16 -
16.09.2019 20:00:00 28,9 0,0 11 6 SW 1006,0 16 -
16.09.2019 19:00:00 29,4 0,0 5 3 WSW 1005,7 16 -
16.09.2019 18:00:00 30,6 0,0 13 7 SW 1005,7 16 -
16.09.2019 17:00:00 31,7 0,0 11 6 W 1005,3 16 0,0
16.09.2019 16:00:00 32,2 0,0 15 8 W 1005,7 16 -
16.09.2019 15:00:00 30,6 0,6 8 4 - 1007,0 16 -
16.09.2019 14:00:00 31,7 0,6 26 14 SW 1007,5 16 -
16.09.2019 13:00:00 30,0 5,0 16 9 SSW 1008,9 16 -
16.09.2019 12:00:00 28,3 10,0 0 0 N 1010,2 16 -
16.09.2019 11:00:00 25,6 10,0 5 3 - 1011,5 16 0,0
16.09.2019 10:00:00 24,4 9,4 8 4 NW 1012,6 16 -
16.09.2019 09:00:00 22,2 9,4 0 0 N 1013,2 16 -
16.09.2019 08:00:00 20,6 9,4 11 6 SSW 1013,3 16 -
16.09.2019 07:00:00 18,9 8,9 9 5 SSE 1012,9 16 -
16.09.2019 06:00:00 18,9 8,9 9 5 S 1012,3 16 -
16.09.2019 05:00:00 18,9 8,3 9 5 SSE 1011,7 16 0,0
16.09.2019 04:00:00 19,4 8,3 5 3 S 1011,4 16 -
16.09.2019 03:00:00 19,4 7,8 9 5 SSW 1011,5 16 -
16.09.2019 02:00:00 20,0 7,8 8 4 SW 1011,8 16 -
16.09.2019 01:00:00 20,0 7,8 0 0 N 1011,9 16 -
16.09.2019 00:00:00 20,6 7,8 0 0 N 1011,8 16 -
15.09.2019 23:00:00 21,7 7,8 13 7 SSW 1012,0 10 0,0
15.09.2019 22:00:00 22,8 7,2 15 8 SSW 1012,3 16 -
15.09.2019 21:00:00 23,9 6,7 18 10 S 1011,9 16 -
15.09.2019 20:00:00 25,0 6,1 26 14 SSE 1011,2 16 -
15.09.2019 19:00:00 26,7 6,1 29 16 SSE 1010,6 16 -
15.09.2019 18:00:00 28,3 6,1 28 15 SSE 1010,1 16 -
15.09.2019 17:00:00 29,4 5,6 16 9 SSE 1009,8 16 0,0
15.09.2019 16:00:00 30,6 6,1 24 13 S 1010,1 16 -
15.09.2019 15:00:00 31,1 5,6 26 14 SSE 1010,1 16 -
15.09.2019 14:00:00 31,1 6,1 24 13 SSE 1010,7 16 -
15.09.2019 13:00:00 30,6 4,4 5 3 - 1011,5 16 -
15.09.2019 12:00:00 30,0 5,0 8 4 - 1012,1 16 -
15.09.2019 11:00:00 27,8 7,2 5 3 SSE 1013,2 16 0,0
15.09.2019 10:00:00 26,1 7,8 11 6 WSW 1014,2 16 -
15.09.2019 09:00:00 25,0 7,8 5 3 - 1014,2 16 -
15.09.2019 08:00:00 22,2 8,3 0 0 N 1013,9 16 -
15.09.2019 07:00:00 19,4 6,7 0 0 N 1013,6 16 -
15.09.2019 06:00:00 20,0 7,2 11 6 SW 1012,7 16 -
15.09.2019 05:00:00 21,1 7,8 8 4 SW 1012,0 16 0,0
15.09.2019 04:00:00 20,6 8,3 9 5 SSE 1012,0 16 -
15.09.2019 03:00:00 22,8 8,9 9 5 SSE 1012,1 16 -
15.09.2019 02:00:00 24,4 8,9 11 6 S 1012,4 16 -
15.09.2019 01:00:00 25,0 6,1 9 5 SW 1012,7 16 -
15.09.2019 00:00:00 27,2 1,7 9 5 - 1012,1 16 -
14.09.2019 23:00:00 26,1 -1,1 11 6 WNW 1012,4 16 0,0
14.09.2019 22:00:00 27,2 -1,7 9 5 S 1011,9 16 -
14.09.2019 21:00:00 27,8 -1,1 8 4 SSE 1011,8 16 -
14.09.2019 20:00:00 28,3 -1,1 5 3 S 1011,7 16 -
14.09.2019 19:00:00 29,4 -1,7 0 0 N 1011,7 16 -
14.09.2019 18:00:00 32,8 -1,7 8 4 E 1011,6 16 -
14.09.2019 17:00:00 33,3 -0,6 11 6 ENE 1011,8 16 0,0
14.09.2019 16:00:00 33,9 -1,7 11 6 ENE 1011,7 16 -
14.09.2019 15:00:00 33,3 -5,6 16 9 N 1012,2 16 -
14.09.2019 14:00:00 31,7 -5,6 11 6 ENE 1013,9 16 -
14.09.2019 13:00:00 29,4 -3,3 15 8 NE 1015,3 16 -
14.09.2019 12:00:00 27,8 -3,9 8 4 NE 1016,6 16 -
14.09.2019 11:00:00 25,0 -3,3 8 4 N 1017,7 16 0,0
14.09.2019 10:00:00 23,9 -4,4 11 6 N 1018,4 16 -
14.09.2019 09:00:00 21,7 -4,4 8 4 - 1018,6 16 -
14.09.2019 08:00:00 20,6 -5,6 0 0 N 1018,5 16 -
14.09.2019 07:00:00 17,8 -5,6 5 3 SE 1018,1 16 -
14.09.2019 06:00:00 16,1 -5,6 0 0 N 1017,3 16 -
14.09.2019 05:00:00 16,7 -5,0 9 5 WSW 1016,9 16 0,0
14.09.2019 04:00:00 16,7 -5,6 9 5 SSE 1016,4 16 -
14.09.2019 03:00:00 19,4 -5,6 8 4 WSW 1015,9 16 -
14.09.2019 02:00:00 17,8 -3,9 0 0 N 1016,2 16 -
14.09.2019 01:00:00 18,9 -3,9 8 4 W 1015,9 16 -
14.09.2019 00:00:00 19,4 -3,9 5 3 NNW 1016,0 16 -
13.09.2019 23:00:00 20,0 -2,8 5 3 W 1015,6 16 0,0
13.09.2019 22:00:00 21,7 -3,9 5 3 SSE 1015,6 16 -
13.09.2019 21:00:00 22,8 -3,3 5 3 S 1015,4 16 -
13.09.2019 20:00:00 23,9 -3,3 0 0 N 1015,0 16 -
13.09.2019 19:00:00 26,1 -5,6 5 3 NNE 1014,4 16 -
13.09.2019 18:00:00 29,4 -6,1 9 5 N 1014,3 16 -
13.09.2019 17:00:00 30,6 -6,1 8 4 N 1014,4 16 0,0
13.09.2019 16:00:00 30,0 -5,6 8 4 N 1014,6 16 -
13.09.2019 15:00:00 30,0 -5,0 11 6 N 1015,2 16 -
13.09.2019 14:00:00 28,3 -4,4 5 3 - 1016,8 16 -
13.09.2019 13:00:00 28,3 -3,3 9 5 ENE 1017,7 16 -
13.09.2019 12:00:00 26,1 -2,2 0 0 N 1018,9 16 -
13.09.2019 11:00:00 25,0 -2,2 11 6 - 1019,8 16 0,0
13.09.2019 10:00:00 22,8 -2,2 8 4 N 1020,2 16 -

tt = temperature
td = dewpoint
ff = wind speed
dd = wind direction
ppp = reduced air pressure
vv = visibility
rr = precipitation

Next stations